7 * 24
多渠道服务支持
Hi!有什么问题可以问我哦~
RADUGA 1-8(“虹”1号-8)是俄罗斯(发射时归属独联体CIS)“虹”1系列通信卫星的最后一颗,于2009年2月28日发射成功,属于俄罗斯第二代地球同步轨道通信卫星。 卫星由俄罗斯应用力学科研生产联合体基于“库尔”3号平台研制,发射质量约2320千克,携带6路C频段转发器,由俄罗斯航天部队运营,主要提供军事通信及东半球(极区除外)民用电视、电话电报通信服务。
| 数据来源 | 国际轨道数据 |
| 星历时间: | 2026-04-03T20:57:14+0800 14小时前 查看轨道信息 |
| 半长轴: | 42290.534km |
| 偏心率: | 0.0010615 |
| 轨道倾角: | 11.971° |
| 近地点辐角 | 20.495° |
| 升交点赤经 | 42.406° |
| 平近点角 | 350.146° |
| 近地点: | 35867.505km |
| 远地点: | 35957.289km |
| 周期: | 1442.529分钟 |
| 每日圈数: | 0.998247 |